Tracking 28920 objects as of 24-May-2024
HD Live streaming from Space Station
objects crossing your sky now

STARLINK-4140

Track STARLINK-4140 now!
10-day predictions
STARLINK-4140 is classified as:


NORAD ID: 53259
Int'l Code: 2022-086T
Perigee: 546.1 km
Apogee: 547.8 km
Inclination: 53.2 °
Period: 95.4 minutes
Semi major axis: 6917 km
RCS: Unknown
Launch date: July 24, 2022
Source: United States (US)
Launch site: AIR FORCE EASTERN TEST RANGE (AFETR)
Your satellite tracking list
Your tracking list is empty




NASA's NSSDC Master Catalog

Two Line Element Set (TLE):
1 53259U 22086T   24144.52904000  .00005440  00000-0  35976-3 0  9993
2 53259  53.2163 254.8853 0001266  78.1193 281.9941 15.08823606102168
Source of the keplerian elements: AFSPC